SL-16 DEB, 22616

Orbit data source: Space-Track

SL-16 DEB, 22616 is space debris in LEO originally from a launch on Fri, 26 Mar 1993 UTC launched from the Tyuratam Missile And Space Complex (TTMTR). Debris objects in space refer to the collection of defunct objects orbiting the Earth. Examples of debris include non-operational satellites, rocket bodies, and fragments generated from explosions, collisions, or faulty payload assembly.

Loading next visibility...
Identifier
22616, 1993-016AA
Orbit
LEO
Country
Flag of CISCIS
Related business
Manufacturer
Unknown
Mission
Spacecraft
Bus & Motor
Unknown
Mass
Unknown
Launch date (UTC)
1993-03-26 (32 years ago)
Launch vehicle
Unknown
Launch site
Tyuratam Missile And Space Complex (TTMTR)
Object type
Payload
Rocket body
Debris
Shape & HBR
Unknown
Radar Cross Section
Small (<0.1 m²)

Expand to show TLE details & history
Last TLE update: 14 hours ago

TLE from 14 hours ago
0 SL-16 DEB
1 22616U 93016AA  25259.93147128  .00000081  00000-0  11673-3 0  9994
2 22616  70.9942  74.4911 0187908 206.1452 279.7777 13.73937418627556
Epoch: 2025-09-16T22:21Z
TLE epoch observation values (Epoch: 2025-09-16T22:21:19.118Z)
Latitude
51.89965°
Longitude
-102.86525°
Altitude
972.349 km
Speed
7.381 km/s
True Right ascension
15h 14m 18s
True Declination
51° 44' 15"
Sunlit
Object was in daylight at epoch
Visualization orbit readout
Latitude
Unknown
Longitude
Unknown
Altitude
Unknown
Speed
Unknown
Apparent Right ascension
Unknown
Apparent Declination
Unknown
Sunlit
N/A
Visualization observer readout
Local Sidereal Time
04:43:10
Azimuth
Unknown
Elevation
Unknown
Doppler factor
Unknown
Orbital elements
Apogee altitude
1,121.764 km
Perigee altitude
845.104 km
Semi-major axis
7,361.571 km
Eccentricity
0.01879
Inclination
70.9942°
RAAN
74.4911°
Arg. of periapsis
206.1452°
True anomaly
277.64771°
Mean anomaly
279.7777°
Eccentric anomaly
278.71349°
Mean motion
3.43627 °/min
Orbital period
104.76 mins
BSTAR
0.00011673
Loading maneuver chart data...
Computing Atmospheric mass density...
Loading historical data...
Loading historical data...
Loading historical data...
Loading historical data...
Loading historical data...
Loading historical data...
Loading historical data...

Documentation

Showing up to 5 results
|